#timestamp,LO_Frequency,Hit,StdDev 
1553068815.6,286047001.1,N
1553068835.5,286046996.9,N
1553068855.3,286046999.3,N
1553068875.1,286046999.3,N
1553068895.9,286046999.6,N
1553068915.7,286046999.2,N
1553068935.6,286046998.2,N
1553068955.4,286046998.6,N
1553068975.2,286047000.9,N
1553068995.1,286047001.1,N
1553068996.0,286047001.1,N
1553069015.8,286046998.5,N
1553069035.6,286046998.8,N
1553069055.5,286047000.5,N
1553069075.3,286046999.6,N
1553069095.2,286046996.9,N
1553069115.9,286046997.0,N
1553069135.7,286046996.7,N
1553069155.6,286046999.1,N
1553069175.4,286046996.7,N
1553069195.2,286046999.4,N
1553069215.1,286046999.3,N
1553069216.0,286046999.3,N
1553069235.8,286046999.5,N
1553069255.7,286046994.9,Y
1553069275.5,286046998.0,P
1553069295.3,286046995.2,P
1553069315.2,286046995.9,N
1553069335.0,286046997.9,N
1553069335.9,286046997.9,N
1553069355.8,286046997.7,N
1553069375.6,286046997.2,N
1553069395.4,286046995.8,Y
1553069415.3,286046999.4,P
1553069435.1,286046999.2,N
1553069455.8,286046999.5,N
1553069475.7,286046995.3,Y
1553069495.5,286046998.0,P
1553069515.4,286046997.7,P
1553069535.2,286046997.7,P
1553069555.0,286046997.5,Y
1553069555.9,286046997.5,P
1553069575.8,286046998.7,P
1553069595.6,286046999.5,N
1553069615.5,286046998.9,N
1553069635.3,286047001.1,N
1553069655.1,286047000.5,N
1553069675.9,286047000.5,N
1553069695.7,286046998.3,N
1553069715.5,286047000.4,N
1553069735.4,286046998.3,N
1553069755.2,286046998.2,N
1553069775.0,286046999.2,N
1553069776.0,286046999.2,N
1553069795.8,286046998.3,N
1553069815.6,286046996.5,Y
1553069835.5,286046999.0,P
1553069855.3,286046998.9,P
1553069875.1,286046997.5,P
1553069895.9,286046999.2,N
1553069915.7,286046996.9,Y
1553069935.6,286046998.6,P
1553069955.4,286046998.2,P
1553069975.2,286047000.8,P
1553069995.1,286047000.6,N
1553069996.0,286047000.6,N
1553070015.8,286047001.1,N
1553070035.7,286047000.9,N
1553070055.5,286046998.2,N
1553070075.3,286046998.3,N
1553070095.2,286046998.9,N
1553070115.9,286047000.7,N
1553070135.7,286046998.4,N
1553070155.6,286046998.2,N
1553070175.4,286046998.7,N
1553070195.3,286046998.8,N
1553070215.1,286046999.6,N
1553070216.0,286046999.6,N
1553070235.8,286046998.1,N
1553070255.7,286046999.5,N
1553070275.5,286046996.5,Y
1553070295.4,286046998.5,P
1553070315.2,286046998.8,N
1553070335.0,286046998.3,P
1553070335.9,286046998.3,Y
1553070355.8,286047000.2,P
1553070375.6,286047002.7,P
1553070395.4,286047000.9,N
1553070415.3,286047000.1,N
1553070435.1,286047002.6,N
1553070455.9,286047002.7,N
1553070475.7,286047001.2,N
1553070495.5,286047001.2,N
1553070515.4,286047001.2,N
1553070535.2,286046998.1,N
1553070555.0,286047001.0,N
1553070555.9,286047001.0,N
1553070575.8,286047000.5,N
1553070595.6,286046998.5,N
1553070615.5,286047000.5,N
1553070635.3,286046998.5,N
1553070655.1,286046998.3,N
1553070675.9,286046996.7,N
1553070695.7,286046998.9,N
1553070715.5,286046998.1,N
1553070735.4,286047000.7,N
1553070755.2,286046998.6,N
1553070775.1,286047000.3,N
1553070776.0,286047000.3,N
1553070795.8,286047000.8,N
1553070815.6,286046998.7,N
1553070835.5,286046999.5,N
1553070855.3,286046999.3,N
1553070875.1,286046997.2,N
1553070895.9,286046997.1,N
1553070915.7,286046997.5,N
1553070935.6,286046997.6,N
1553070955.4,286046998.0,N
1553070975.2,286046996.5,N
1553070995.1,286046998.4,N
1553070996.0,286046998.4,N
1553071015.8,286046999.4,N
1553071035.6,286046999.0,N
1553071055.5,286046998.6,N
1553071075.3,286046999.0,N
1553071095.2,286046998.5,N
1553071115.9,286046998.6,N
1553071135.7,286047000.5,N
1553071155.6,286047000.0,N
1553071175.4,286047002.2,N
1553071195.2,286047002.7,N
1553071215.1,286047002.1,N
1553071216.0,286047002.1,N
1553071235.8,286047001.7,N
1553071255.7,286047002.3,N
1553071275.5,286047002.0,N
1553071295.3,286047004.4,N
1553071315.2,286047001.8,N
1553071335.9,286047001.4,N
1553071355.7,286047004.4,N
1553071375.6,286047003.9,N
1553071395.4,286047001.3,N
1553071415.2,286047002.2,N
1553071435.1,286047002.7,N
1553071436.0,286047002.7,N
1553071455.8,286047000.1,N
1553071475.7,286047000.5,N
1553071495.5,286046998.5,N
1553071515.3,286047000.9,N
1553071535.2,286046998.1,N
1553071555.0,286046998.9,N
1553071555.9,286046998.9,N
1553071575.8,286047001.1,N
1553071595.6,286047000.7,N
1553071615.4,286047000.3,N
1553071635.3,286047000.5,N
1553071655.1,286047001.1,N
1553071675.8,286047001.1,N
1553071695.7,286046998.5,N
1553071715.5,286047001.1,N
1553071735.3,286046998.7,N
1553071755.2,286046998.3,N
1553071775.0,286047001.2,N
1553071775.9,286047001.2,N
1553071795.8,286047000.5,N
1553071815.6,286047002.3,N
1553071835.4,286046999.7,N
1553071855.3,286047004.0,N
1553071875.1,286047004.0,N
1553071895.9,286047001.3,N
1553071915.7,286047001.4,N
1553071935.5,286047002.8,N
1553071955.4,286047000.0,N
1553071975.2,286046999.9,N
1553071995.0,286047000.7,N
1553071995.9,286047000.7,N
1553072015.8,286047000.5,N
1553072035.6,286046999.8,N
1553072055.5,286047002.1,N
1553072075.3,286047002.3,N
1553072095.1,286047001.3,N
1553072115.9,286047004.2,Y
1553072135.7,286047002.2,P
1553072155.5,286046999.9,N
1553072175.4,286047002.7,N
1553072195.2,286046999.8,N
1553072215.1,286047002.8,N
1553072216.0,286047002.8,N
1553072235.8,286047001.6,N
1553072255.6,286047002.1,N
1553072275.5,286047002.6,N
1553072295.3,286047002.5,N
1553072315.1,286047000.0,N
1553072335.9,286047000.3,N
1553072355.7,286047000.4,N
1553072375.6,286047000.3,N
1553072395.4,286047001.9,N
